Zurück zum Katalog

TIANHUI 6A

AktivWissenschaftSSO
NORAD 55836·PAYLOAD·🇨🇳 China

Gestartet Mar 9, 2023 von Taiyuan Satellite Launch Center

Loading…

Nächste Überflüge (nächste 24 Stunden)

TLE

AktuellSource: Space-Track

Epoche: Sep 14, 2026, 23:18 UTC

1 55836U 23030A   26257.97134451 -.00000108  00000-0 -42611-4 0  9990
2 55836  99.0125 265.1022 0003138 130.5938 229.5501 14.01326913179974

Verfolge TIANHUI 6A in Echtzeit mit AllMySat

Download on the App Store